| time (UTC) | temp C | wind direction | speed KPH | gust KPH | rain 1hr cm | rain 24hr cm | rain mn cm | humidity % | barometer mb |
| 20260507105045 | 16 | 171 | 3.2 | 8.0 | 0.00 | 0.00 | 0.00 | 57 | 1010.4 |
| 20260507104558 | 16 | 181 | 1.6 | 12.9 | 0.00 | 0.00 | 0.00 | 58 | 1010.5 |
| 20260507104044 | 15 | 73 | 1.6 | 12.9 | 0.00 | 0.00 | 0.00 | 59 | 1010.5 |
| 20260507103546 | 15 | 126 | 3.2 | 9.7 | 0.00 | 0.00 | 0.00 | 59 | 1010.7 |
| 20260507103048 | 15 | 107 | 1.6 | 12.9 | 0.00 | 0.00 | 0.00 | 58 | 1010.8 |
| 20260507102545 | 15 | 41 | 3.2 | 14.5 | 0.00 | 0.00 | 0.00 | 60 | 1010.8 |
| 20260507102045 | 15 | 179 | 3.2 | 14.5 | 0.00 | 0.00 | 0.00 | 60 | 1010.8 |
| 20260507101550 | 15 | 188 | 3.2 | 14.5 | 0.00 | 0.00 | 0.00 | 60 | 1011.0 |
| 20260507101045 | 15 | 153 | 1.6 | 11.3 | 0.00 | 0.00 | 0.00 | 60 | 1011.0 |
| 20260507100542 | 15 | 77 | 4.8 | 11.3 | 0.00 | 0.00 | 0.00 | 60 | 1011.0 |
| 20260507100059 | 16 | 5 | 3.2 | 8.0 | 0.00 | 0.00 | 0.00 | 59 | 1011.1 |
| 20260507095545 | 15 | 0 | 3.2 | 14.5 | 0.00 | 0.00 | 0.00 | 61 | 1011.0 |
| 20260507095045 | 15 | 0 | 1.6 | 14.5 | 0.00 | 0.00 | 0.00 | 60 | 1010.9 |
| 20260507094550 | 15 | 74 | 3.2 | 14.5 | 0.00 | 0.00 | 0.00 | 61 | 1010.9 |
| 20260507094045 | 15 | 346 | 3.2 | 11.3 | 0.00 | 0.00 | 0.00 | 61 | 1010.9 |
| 20260507093545 | 14 | 56 | 3.2 | 9.7 | 0.00 | 0.00 | 0.00 | 62 | 1010.9 |
| 20260507093052 | 14 | 18 | 1.6 | 12.9 | 0.00 | 0.00 | 0.00 | 65 | 1010.9 |
| 20260507092545 | 13 | 163 | 3.2 | 12.9 | 0.00 | 0.00 | 0.00 | 63 | 1010.9 |
| 20260507092043 | 14 | 191 | 4.8 | 11.3 | 0.00 | 0.00 | 0.00 | 63 | 1010.9 |
| 20260507091552 | 14 | 116 | 1.6 | 11.3 | 0.00 | 0.00 | 0.00 | 63 | 1011.0 |
| 20260507091045 | 14 | 205 | 3.2 | 14.5 | 0.00 | 0.00 | 0.00 | 61 | 1010.9 |
| 20260507090543 | 14 | 66 | 1.6 | 14.5 | 0.00 | 0.00 | 0.00 | 62 | 1010.9 |
| 20260507090100 | 14 | 1 | 4.8 | 17.7 | 0.00 | 0.00 | 0.00 | 61 | 1010.9 |
| 20260507085544 | 14 | 114 | 6.4 | 17.7 | 0.00 | 0.00 | 0.00 | 63 | 1010.9 |
| 20260507085043 | 14 | 12 | 11.3 | 17.7 | 0.00 | 0.00 | 0.00 | 62 | 1010.9 |
| 20260507084556 | 13 | 0 | 3.2 | 12.9 | 0.00 | 0.00 | 0.00 | 64 | 1010.9 |
| 20260507084042 | 13 | 70 | 4.8 | 11.3 | 0.00 | 0.00 | 0.00 | 65 | 1010.9 |
| 20260507083544 | 13 | 81 | 0.0 | 9.7 | 0.00 | 0.00 | 0.00 | 65 | 1011.0 |
| 20260507083058 | 13 | 134 | 3.2 | 14.5 | 0.00 | 0.00 | 0.00 | 65 | 1010.9 |
| 20260507082544 | 13 | 55 | 4.8 | 14.5 | 0.00 | 0.00 | 0.00 | 67 | 1010.9 |
| 20260507082044 | 12 | 7 | 6.4 | 12.9 | 0.00 | 0.00 | 0.00 | 67 | 1010.9 |
| 20260507081556 | 12 | 62 | 3.2 | 9.7 | 0.00 | 0.00 | 0.00 | 67 | 1011.0 |
| 20260507081045 | 12 | 118 | 1.6 | 11.3 | 0.00 | 0.00 | 0.00 | 67 | 1011.0 |
| 20260507080544 | 12 | 39 | 4.8 | 11.3 | 0.00 | 0.00 | 0.00 | 67 | 1010.9 |
| 20260507075545 | 12 | 70 | 4.8 | 8.0 | 0.00 | 0.00 | 0.00 | 67 | 1010.9 |
| 20260507075045 | 12 | 338 | 3.2 | 14.5 | 0.00 | 0.00 | 0.00 | 68 | 1010.9 |
| 20260507074550 | 12 | 28 | 1.6 | 14.5 | 0.00 | 0.00 | 0.00 | 68 | 1010.7 |
| 20260507074042 | 12 | 64 | 6.4 | 14.5 | 0.00 | 0.00 | 0.00 | 68 | 1010.7 |
| 20260507073548 | 12 | 16 | 3.2 | 16.1 | 0.00 | 0.00 | 0.00 | 68 | 1010.7 |
| 20260507073051 | 12 | 76 | 4.8 | 16.1 | 0.00 | 0.00 | 0.00 | 68 | 1010.7 |
| 20260507072544 | 12 | 37 | 1.6 | 9.7 | 0.00 | 0.00 | 0.00 | 68 | 1010.7 |
| 20260507072045 | 12 | 36 | 3.2 | 9.7 | 0.00 | 0.00 | 0.00 | 68 | 1010.8 |
| 20260507071553 | 12 | 22 | 1.6 | 6.4 | 0.00 | 0.00 | 0.00 | 68 | 1010.8 |
| 20260507071044 | 12 | 26 | 0.0 | 8.0 | 0.00 | 0.00 | 0.00 | 68 | 1010.8 |
| 20260507070541 | 12 | 63 | 0.0 | 8.0 | 0.00 | 0.00 | 0.00 | 68 | 1010.8 |
| 20260507070058 | 12 | 0 | 3.2 | 9.7 | 0.00 | 0.00 | 0.00 | 68 | 1010.8 |
| 20260507065547 | 12 | 84 | 0.0 | 9.7 | 0.00 | 0.00 | 0.00 | 68 | 1010.7 |
| 20260507065044 | 12 | 78 | 3.2 | 9.7 | 0.00 | 0.00 | 0.00 | 68 | 1010.7 |
| 20260507064623 | 12 | 0 | 1.6 | 9.7 | 0.00 | 0.00 | 0.00 | 68 | 1010.7 |
| 20260507064044 | 12 | 3 | 3.2 | 9.7 | 0.00 | 0.00 | 0.00 | 68 | 1010.4 |
| 20260507063544 | 12 | 109 | 1.6 | 8.0 | 0.00 | 0.00 | 0.00 | 68 | 1010.4 |
| 20260507063053 | 11 | 12 | 1.6 | 8.0 | 0.00 | 0.00 | 0.00 | 68 | 1010.3 |
| 20260507062543 | 11 | 107 | 1.6 | 8.0 | 0.00 | 0.00 | 0.00 | 68 | 1010.4 |
| 20260507062043 | 11 | 40 | 1.6 | 6.4 | 0.00 | 0.00 | 0.00 | 69 | 1010.3 |
| 20260507061549 | 11 | 1 | 1.6 | 8.0 | 0.00 | 0.00 | 0.00 | 69 | 1010.2 |
| 20260507061044 | 11 | 0 | 3.2 | 9.7 | 0.00 | 0.00 | 0.00 | 69 | 1010.3 |
| 20260507060542 | 11 | 110 | 0.0 | 11.3 | 0.00 | 0.00 | 0.00 | 69 | 1010.3 |
| 20260507060109 | 11 | 54 | 3.2 | 11.3 | 0.00 | 0.00 | 0.00 | 69 | 1010.3 |
| 20260507055547 | 11 | 49 | 3.2 | 11.3 | 0.00 | 0.00 | 0.00 | 69 | 1010.2 |
| 20260507055047 | 11 | 0 | 3.2 | 11.3 | 0.00 | 0.00 | 0.00 | 69 | 1010.0 |
| 20260507054552 | 11 | 50 | 1.6 | 9.7 | 0.00 | 0.00 | 0.00 | 69 | 1010.0 |
| 20260507054045 | 11 | 66 | 3.2 | 12.9 | 0.00 | 0.00 | 0.00 | 69 | 1009.9 |
| 20260507053548 | 11 | 138 | 3.2 | 16.1 | 0.00 | 0.00 | 0.00 | 69 | 1010.0 |
| 20260507053048 | 11 | 84 | 4.8 | 16.1 | 0.00 | 0.00 | 0.00 | 69 | 1010.0 |
| 20260507052547 | 11 | 88 | 3.2 | 12.9 | 0.00 | 0.00 | 0.00 | 69 | 1009.9 |
| 20260507052044 | 11 | 99 | 4.8 | 12.9 | 0.00 | 0.00 | 0.00 | 69 | 1009.9 |
| 20260507051605 | 11 | 67 | 4.8 | 12.9 | 0.00 | 0.00 | 0.00 | 69 | 1010.0 |
| 20260507051045 | 11 | 82 | 3.2 | 14.5 | 0.00 | 0.00 | 0.00 | 69 | 1009.9 |
| 20260507050549 | 11 | 0 | 3.2 | 14.5 | 0.00 | 0.00 | 0.00 | 69 | 1009.9 |
| 20260507050051 | 11 | 0 | 1.6 | 14.5 | 0.00 | 0.00 | 0.00 | 69 | 1009.9 |
| 20260507045548 | 11 | 59 | 1.6 | 14.5 | 0.00 | 0.00 | 0.00 | 69 | 1009.8 |
| 20260507045048 | 11 | 75 | 4.8 | 14.5 | 0.00 | 0.00 | 0.00 | 69 | 1009.9 |
| 20260507044556 | 11 | 20 | 3.2 | 14.5 | 0.00 | 0.00 | 0.00 | 69 | 1009.9 |
| 20260507044051 | 11 | 8 | 1.6 | 14.5 | 0.00 | 0.00 | 0.00 | 69 | 1009.9 |
| 20260507043547 | 11 | 83 | 4.8 | 11.3 | 0.00 | 0.00 | 0.00 | 69 | 1009.9 |
| 20260507043055 | 11 | 57 | 3.2 | 11.3 | 0.00 | 0.00 | 0.00 | 69 | 1009.9 |
| 20260507042547 | 11 | 0 | 4.8 | 11.3 | 0.00 | 0.00 | 0.00 | 69 | 1009.9 |
| 20260507042047 | 11 | 0 | 1.6 | 19.3 | 0.00 | 0.00 | 0.00 | 68 | 1009.9 |
| 20260507041550 | 11 | 63 | 4.8 | 19.3 | 0.00 | 0.00 | 0.00 | 68 | 1009.9 |
| 20260507041047 | 11 | 77 | 1.6 | 16.1 | 0.00 | 0.00 | 0.00 | 68 | 1009.9 |
| 20260507040547 | 11 | 57 | 1.6 | 12.9 | 0.00 | 0.00 | 0.00 | 68 | 1009.9 |
| 20260507040052 | 11 | 93 | 3.2 | 14.5 | 0.00 | 0.00 | 0.00 | 68 | 1009.9 |
| 20260507035547 | 11 | 32 | 3.2 | 14.5 | 0.00 | 0.00 | 0.00 | 68 | 1009.9 |
| 20260507035047 | 11 | 12 | 3.2 | 14.5 | 0.00 | 0.00 | 0.00 | 67 | 1010.0 |
| 20260507034555 | 11 | 38 | 3.2 | 14.5 | 0.00 | 0.00 | 0.00 | 67 | 1010.0 |
| 20260507034048 | 11 | 0 | 1.6 | 11.3 | 0.00 | 0.00 | 0.00 | 66 | 1010.0 |
| 20260507033548 | 11 | 60 | 1.6 | 11.3 | 0.00 | 0.00 | 0.00 | 66 | 1010.0 |
| 20260507033052 | 11 | 72 | 3.2 | 16.1 | 0.00 | 0.00 | 0.00 | 66 | 1009.9 |
| 20260507032548 | 11 | 55 | 3.2 | 16.1 | 0.00 | 0.00 | 0.00 | 66 | 1009.9 |
| 20260507032047 | 11 | 128 | 3.2 | 9.7 | 0.00 | 0.00 | 0.00 | 65 | 1009.9 |
| 20260507031550 | 11 | 16 | 1.6 | 12.9 | 0.00 | 0.00 | 0.00 | 65 | 1009.8 |
| 20260507031049 | 11 | 346 | 4.8 | 14.5 | 0.00 | 0.00 | 0.00 | 65 | 1009.9 |
| 20260507030548 | 11 | 51 | 6.4 | 14.5 | 0.00 | 0.00 | 0.00 | 65 | 1009.9 |
| 20260507030054 | 11 | 21 | 4.8 | 11.3 | 0.00 | 0.00 | 0.00 | 64 | 1009.9 |
| 20260507025546 | 11 | 11 | 1.6 | 12.9 | 0.00 | 0.00 | 0.00 | 64 | 1009.9 |
| 20260507025048 | 11 | 0 | 1.6 | 12.9 | 0.00 | 0.00 | 0.00 | 64 | 1010.0 |
| 20260507024555 | 12 | 88 | 1.6 | 9.7 | 0.00 | 0.00 | 0.00 | 64 | 1009.9 |
| 20260507024046 | 12 | 66 | 3.2 | 6.4 | 0.00 | 0.00 | 0.00 | 63 | 1009.8 |
| 20260507023542 | 12 | 0 | 0.0 | 8.0 | 0.00 | 0.00 | 0.00 | 63 | 1009.9 |
| 20260507023054 | 12 | 0 | 1.6 | 8.0 | 0.00 | 0.00 | 0.00 | 63 | 1009.9 |
| 20260507022545 | 12 | 0 | 3.2 | 8.0 | 0.00 | 0.00 | 0.00 | 62 | 1010.0 |
| 20260507022044 | 12 | 18 | 1.6 | 8.0 | 0.00 | 0.00 | 0.00 | 62 | 1010.0 |
| 20260507021551 | 12 | 109 | 3.2 | 8.0 | 0.00 | 0.00 | 0.00 | 62 | 1010.0 |
| 20260507021045 | 12 | 0 | 4.8 | 11.3 | 0.00 | 0.00 | 0.00 | 61 | 1009.9 |
| 20260507020545 | 12 | 0 | 3.2 | 11.3 | 0.00 | 0.00 | 0.00 | 61 | 1010.0 |
| 20260507015545 | 12 | 67 | 3.2 | 9.7 | 0.00 | 0.00 | 0.00 | 59 | 1009.9 |
| 20260507015045 | 12 | 75 | 1.6 | 9.7 | 0.00 | 0.00 | 0.00 | 59 | 1009.9 |
| 20260507014559 | 12 | 4 | 0.0 | 9.7 | 0.00 | 0.00 | 0.00 | 59 | 1009.9 |
| 20260507014045 | 12 | 0 | 1.6 | 8.0 | 0.00 | 0.00 | 0.00 | 59 | 1009.8 |
| 20260507013545 | 12 | 29 | 1.6 | 8.0 | 0.00 | 0.00 | 0.00 | 58 | 1009.9 |
| 20260507013047 | 12 | 98 | 1.6 | 8.0 | 0.00 | 0.00 | 0.00 | 59 | 1009.9 |
| 20260507012544 | 12 | 136 | 1.6 | 8.0 | 0.00 | 0.00 | 0.00 | 58 | 1009.9 |
| 20260507012044 | 12 | 151 | 1.6 | 8.0 | 0.00 | 0.00 | 0.00 | 58 | 1010.0 |
| 20260507011552 | 12 | 65 | 1.6 | 12.9 | 0.00 | 0.00 | 0.00 | 58 | 1010.0 |
| 20260507011044 | 12 | 168 | 3.2 | 12.9 | 0.00 | 0.00 | 0.00 | 58 | 1010.0 |
| 20260507010544 | 12 | 107 | 3.2 | 14.5 | 0.00 | 0.00 | 0.00 | 58 | 1010.1 |
| 20260507010059 | 12 | 291 | 4.8 | 14.5 | 0.00 | 0.00 | 0.00 | 57 | 1010.0 |
| 20260507005545 | 12 | 148 | 1.6 | 14.5 | 0.00 | 0.00 | 0.00 | 57 | 1010.0 |
| 20260507005045 | 12 | 45 | 6.4 | 14.5 | 0.00 | 0.00 | 0.00 | 56 | 1010.1 |
| 20260507004550 | 12 | 54 | 3.2 | 14.5 | 0.00 | 0.00 | 0.00 | 56 | 1010.2 |
| 20260507004045 | 12 | 13 | 3.2 | 14.5 | 0.00 | 0.00 | 0.00 | 55 | 1010.1 |
| 20260507003545 | 12 | 111 | 3.2 | 16.1 | 0.00 | 0.00 | 0.00 | 55 | 1010.2 |
| 20260507003051 | 12 | 226 | 3.2 | 16.1 | 0.00 | 0.00 | 0.00 | 54 | 1010.2 |
| 20260507002545 | 12 | 0 | 6.4 | 14.5 | 0.00 | 0.00 | 0.00 | 53 | 1010.2 |
| 20260507002045 | 13 | 64 | 4.8 | 12.9 | 0.00 | 0.00 | 0.00 | 52 | 1010.1 |
| 20260507001556 | 13 | 118 | 3.2 | 11.3 | 0.00 | 0.00 | 0.00 | 52 | 1010.2 |
| 20260507001044 | 13 | 49 | 1.6 | 14.5 | 0.00 | 0.00 | 0.00 | 51 | 1010.0 |
| 20260507000546 | 13 | 103 | 3.2 | 16.1 | 0.00 | 0.00 | 0.00 | 50 | 1010.0 |
| 20260507000051 | 13 | 46 | 4.8 | 16.1 | 0.00 | 0.00 | 0.00 | 49 | 1010.1 |
| 20260506235544 | 13 | 117 | 4.8 | 16.1 | 0.00 | 0.00 | 0.00 | 49 | 1009.9 |
| 20260506235047 | 13 | 34 | 3.2 | 14.5 | 0.00 | 0.00 | 0.00 | 48 | 1009.9 |
| 20260506234550 | 13 | 151 | 4.8 | 14.5 | 0.00 | 0.00 | 0.00 | 47 | 1009.9 |
| 20260506234045 | 13 | 134 | 4.8 | 14.5 | 0.00 | 0.00 | 0.00 | 45 | 1009.9 |
| 20260506233545 | 13 | 97 | 4.8 | 14.5 | 0.00 | 0.00 | 0.00 | 45 | 1009.9 |
| 20260506233052 | 14 | 80 | 3.2 | 14.5 | 0.00 | 0.00 | 0.00 | 43 | 1009.9 |
| 20260506232544 | 14 | 62 | 4.8 | 14.5 | 0.00 | 0.00 | 0.00 | 42 | 1009.9 |
| 20260506232043 | 14 | 26 | 3.2 | 14.5 | 0.00 | 0.00 | 0.00 | 42 | 1009.8 |
| 20260506231608 | 14 | 35 | 3.2 | 14.5 | 0.00 | 0.00 | 0.00 | 41 | 1009.8 |
| 20260506231042 | 15 | 41 | 1.6 | 14.5 | 0.00 | 0.00 | 0.00 | 40 | 1009.8 |
| 20260506230543 | 15 | 31 | 3.2 | 14.5 | 0.00 | 0.00 | 0.00 | 39 | 1009.9 |
| 20260506230116 | 15 | 42 | 3.2 | 11.3 | 0.00 | 0.00 | 0.00 | 38 | 1009.8 |
| 20260506225545 | 15 | 71 | 1.6 | 6.4 | 0.00 | 0.00 | 0.00 | 37 | 1009.8 |
| 20260506225043 | 15 | 55 | 1.6 | 6.4 | 0.00 | 0.00 | 0.00 | 36 | 1009.8 |
| 20260506224603 | 15 | 112 | 0.0 | 6.4 | 0.00 | 0.00 | 0.00 | 36 | 1009.8 |
| 20260506224042 | 15 | 87 | 0.0 | 9.7 | 0.00 | 0.00 | 0.00 | 35 | 1009.8 |
| 20260506223545 | 15 | 0 | 1.6 | 9.7 | 0.00 | 0.00 | 0.00 | 34 | 1009.8 |
| 20260506223057 | 15 | 0 | 0.0 | 6.4 | 0.00 | 0.00 | 0.00 | 34 | 1009.8 |
| 20260506222543 | 16 | 161 | 3.2 | 6.4 | 0.00 | 0.00 | 0.00 | 33 | 1009.8 |
| 20260506222046 | 16 | 157 | 1.6 | 6.4 | 0.00 | 0.00 | 0.00 | 32 | 1009.7 |
| 20260506221610 | 16 | 116 | 0.0 | 6.4 | 0.00 | 0.00 | 0.00 | 32 | 1009.8 |
| 20260506221043 | 16 | 0 | 1.6 | 6.4 | 0.00 | 0.00 | 0.00 | 32 | 1009.8 |
| 20260506220546 | 16 | 78 | 1.6 | 4.8 | 0.00 | 0.00 | 0.00 | 32 | 1009.8 |
| 20260506220108 | 16 | 103 | 0.0 | 4.8 | 0.00 | 0.00 | 0.00 | 33 | 1009.8 |
| 20260506215544 | 16 | 85 | 0.0 | 4.8 | 0.00 | 0.00 | 0.00 | 33 | 1009.8 |
| 20260506215044 | 16 | 110 | 0.0 | 3.2 | 0.00 | 0.00 | 0.00 | 33 | 1009.8 |
| 20260506214553 | 16 | 95 | 0.0 | 4.8 | 0.00 | 0.00 | 0.00 | 33 | 1009.9 |
| 20260506214044 | 16 | 0 | 1.6 | 4.8 | 0.00 | 0.00 | 0.00 | 33 | 1009.8 |
| 20260506213543 | 16 | 0 | 0.0 | 3.2 | 0.00 | 0.00 | 0.00 | 33 | 1009.9 |
| 20260506213110 | 16 | 0 | 0.0 | 3.2 | 0.00 | 0.00 | 0.00 | 33 | 1009.9 |
| 20260506212545 | 16 | 0 | 0.0 | 3.2 | 0.00 | 0.00 | 0.00 | 33 | 1009.9 |
| 20260506212044 | 16 | 84 | 0.0 | 3.2 | 0.00 | 0.00 | 0.00 | 32 | 1009.9 |
| 20260506211550 | 16 | 84 | 0.0 | 4.8 | 0.00 | 0.00 | 0.00 | 32 | 1009.9 |
| 20260506211044 | 16 | 0 | 0.0 | 4.8 | 0.00 | 0.00 | 0.00 | 32 | 1009.9 |
| 20260506210544 | 16 | 84 | 0.0 | 4.8 | 0.00 | 0.00 | 0.00 | 32 | 1009.9 |
| 20260506210104 | 16 | 0 | 0.0 | 3.2 | 0.00 | 0.00 | 0.00 | 31 | 1009.9 |
| 20260506205542 | 16 | 118 | 0.0 | 3.2 | 0.00 | 0.00 | 0.00 | 31 | 1009.9 |
| 20260506205042 | 16 | 0 | 0.0 | 3.2 | 0.00 | 0.00 | 0.00 | 31 | 1009.9 |
| 20260506204601 | 16 | 0 | 0.0 | 3.2 | 0.00 | 0.00 | 0.00 | 30 | 1009.9 |
| 20260506204041 | 16 | 0 | 0.0 | 3.2 | 0.00 | 0.00 | 0.00 | 30 | 1009.9 |
| 20260506203545 | 16 | 61 | 0.0 | 3.2 | 0.00 | 0.00 | 0.00 | 30 | 1009.8 |
| 20260506203052 | 16 | 0 | 0.0 | 3.2 | 0.00 | 0.00 | 0.00 | 31 | 1009.8 |
| 20260506202544 | 17 | 0 | 0.0 | 3.2 | 0.00 | 0.00 | 0.00 | 30 | 1009.8 |
| 20260506202041 | 17 | 0 | 0.0 | 4.8 | 0.00 | 0.00 | 0.00 | 29 | 1009.7 |
| 20260506201555 | 17 | 0 | 0.0 | 4.8 | 0.00 | 0.00 | 0.00 | 29 | 1009.7 |
| 20260506201048 | 17 | 0 | 0.0 | 4.8 | 0.00 | 0.00 | 0.00 | 28 | 1009.7 |
| 20260506200546 | 17 | 0 | 0.0 | 3.2 | 0.00 | 0.00 | 0.00 | 28 | 1009.7 |
| 20260506200058 | 17 | 93 | 0.0 | 3.2 | 0.00 | 0.00 | 0.00 | 28 | 1009.7 |
| 20260506195548 | 17 | 0 | 0.0 | 3.2 | 0.00 | 0.00 | 0.00 | 27 | 1009.7 |
| 20260506195045 | 17 | 0 | 0.0 | 3.2 | 0.00 | 0.00 | 0.00 | 27 | 1009.5 |
| 20260506194553 | 17 | 0 | 0.0 | 3.2 | 0.00 | 0.00 | 0.00 | 27 | 1009.5 |
| 20260506194046 | 17 | 0 | 0.0 | 4.8 | 0.00 | 0.00 | 0.00 | 28 | 1009.5 |
| 20260506193542 | 17 | 39 | 0.0 | 4.8 | 0.00 | 0.00 | 0.00 | 27 | 1009.5 |
| 20260506193052 | 17 | 46 | 1.6 | 4.8 | 0.00 | 0.00 | 0.00 | 27 | 1009.4 |
| 20260506192545 | 17 | 46 | 0.0 | 3.2 | 0.00 | 0.00 | 0.00 | 28 | 1009.5 |
| 20260506192045 | 17 | 155 | 0.0 | 3.2 | 0.00 | 0.00 | 0.00 | 28 | 1009.5 |
| 20260506191552 | 17 | 0 | 0.0 | 3.2 | 0.00 | 0.00 | 0.00 | 28 | 1009.5 |
| 20260506191045 | 17 | 155 | 0.0 | 8.0 | 0.00 | 0.00 | 0.00 | 28 | 1009.4 |
| 20260506190547 | 17 | 0 | 3.2 | 8.0 | 0.00 | 0.00 | 0.00 | 26 | 1009.4 |
| 20260506190051 | 17 | 14 | 1.6 | 3.2 | 0.00 | 0.00 | 0.00 | 26 | 1009.4 |
| 20260506185544 | 17 | 0 | 0.0 | 4.8 | 0.00 | 0.00 | 0.00 | 26 | 1009.4 |
| 20260506185045 | 17 | 0 | 0.0 | 4.8 | 0.00 | 0.00 | 0.00 | 26 | 1009.3 |
| 20260506184613 | 17 | 148 | 1.6 | 6.4 | 0.00 | 0.00 | 0.00 | 26 | 1009.4 |
| 20260506184045 | 17 | 179 | 3.2 | 6.4 | 0.00 | 0.00 | 0.00 | 25 | 1009.3 |
| 20260506183549 | 17 | 206 | 1.6 | 6.4 | 0.00 | 0.00 | 0.00 | 25 | 1009.3 |
| 20260506183055 | 18 | 149 | 0.0 | 3.2 | 0.00 | 0.00 | 0.00 | 25 | 1009.3 |
| 20260506182545 | 18 | 137 | 0.0 | 6.4 | 0.00 | 0.00 | 0.00 | 26 | 1009.3 |
| 20260506182042 | 18 | 137 | 1.6 | 6.4 | 0.00 | 0.00 | 0.00 | 26 | 1009.4 |
| 20260506181552 | 18 | 184 | 1.6 | 4.8 | 0.00 | 0.00 | 0.00 | 25 | 1009.3 |
| 20260506181045 | 18 | 167 | 1.6 | 6.4 | 0.00 | 0.00 | 0.00 | 25 | 1009.3 |
| 20260506180545 | 18 | 100 | 0.0 | 6.4 | 0.00 | 0.00 | 0.00 | 25 | 1009.4 |
| 20260506180056 | 18 | 176 | 1.6 | 8.0 | 0.00 | 0.00 | 0.00 | 26 | 1009.3 |
| 20260506175544 | 18 | 142 | 1.6 | 8.0 | 0.00 | 0.00 | 0.00 | 26 | 1009.3 |
| 20260506175047 | 18 | 49 | 1.6 | 9.7 | 0.00 | 0.00 | 0.00 | 26 | 1009.4 |
| 20260506174552 | 18 | 159 | 1.6 | 9.7 | 0.00 | 0.00 | 0.00 | 26 | 1009.4 |
| 20260506174043 | 18 | 126 | 3.2 | 11.3 | 0.00 | 0.00 | 0.00 | 26 | 1009.4 |
| 20260506173544 | 18 | 1 | 3.2 | 11.3 | 0.00 | 0.00 | 0.00 | 26 | 1009.4 |
| 20260506173056 | 18 | 0 | 3.2 | 11.3 | 0.00 | 0.00 | 0.00 | 27 | 1009.5 |
| 20260506172543 | 18 | 120 | 3.2 | 11.3 | 0.00 | 0.00 | 0.00 | 27 | 1009.5 |
| 20260506172047 | 18 | 128 | 3.2 | 9.7 | 0.00 | 0.00 | 0.00 | 27 | 1009.4 |
| 20260506171607 | 18 | 169 | 3.2 | 11.3 | 0.00 | 0.00 | 0.00 | 27 | 1009.5 |
| 20260506171043 | 18 | 109 | 4.8 | 14.5 | 0.00 | 0.00 | 0.00 | 28 | 1009.5 |
| 20260506170544 | 18 | 218 | 6.4 | 14.5 | 0.00 | 0.00 | 0.00 | 28 | 1009.5 |
| 20260506170056 | 18 | 172 | 8.0 | 14.5 | 0.00 | 0.00 | 0.00 | 27 | 1009.4 |
| 20260506165543 | 18 | 172 | 4.8 | 11.3 | 0.00 | 0.00 | 0.00 | 26 | 1009.6 |
| 20260506165043 | 18 | 351 | 1.6 | 9.7 | 0.00 | 0.00 | 0.00 | 28 | 1009.5 |
| 20260506164552 | 18 | 199 | 1.6 | 16.1 | 0.00 | 0.00 | 0.00 | 28 | 1009.7 |
| 20260506164042 | 18 | 204 | 4.8 | 16.1 | 0.00 | 0.00 | 0.00 | 28 | 1009.7 |
| 20260506163542 | 18 | 174 | 3.2 | 11.3 | 0.00 | 0.00 | 0.00 | 28 | 1009.7 |
| 20260506163052 | 18 | 253 | 3.2 | 11.3 | 0.00 | 0.00 | 0.00 | 28 | 1009.7 |
| 20260506162544 | 18 | 217 | 4.8 | 11.3 | 0.00 | 0.00 | 0.00 | 27 | 1009.7 |
| 20260506162044 | 18 | 155 | 4.8 | 11.3 | 0.00 | 0.00 | 0.00 | 28 | 1009.8 |
| 20260506161549 | 18 | 0 | 3.2 | 8.0 | 0.00 | 0.00 | 0.00 | 27 | 1009.7 |
| 20260506161041 | 19 | 8 | 1.6 | 6.4 | 0.00 | 0.00 | 0.00 | 27 | 1009.7 |
| 20260506160543 | 20 | 243 | 0.0 | 6.4 | 0.00 | 0.00 | 0.00 | 26 | 1009.8 |
| 20260506155542 | 18 | 266 | 1.6 | 11.3 | 0.00 | 0.00 | 0.00 | 28 | 1009.8 |
| 20260506155043 | 18 | 265 | 1.6 | 11.3 | 0.00 | 0.00 | 0.00 | 28 | 1009.8 |
| 20260506154553 | 18 | 236 | 1.6 | 9.7 | 0.00 | 0.00 | 0.00 | 28 | 1009.9 |
| 20260506154046 | 18 | 156 | 1.6 | 9.7 | 0.00 | 0.00 | 0.00 | 30 | 1009.9 |
| 20260506153545 | 18 | 0 | 3.2 | 11.3 | 0.00 | 0.00 | 0.00 | 30 | 1009.9 |
| 20260506153055 | 17 | 71 | 3.2 | 11.3 | 0.00 | 0.00 | 0.00 | 30 | 1009.9 |
| 20260506152544 | 18 | 147 | 3.2 | 8.0 | 0.00 | 0.00 | 0.00 | 30 | 1010.0 |
| 20260506152045 | 18 | 194 | 3.2 | 14.5 | 0.00 | 0.00 | 0.00 | 31 | 1010.0 |
| 20260506151551 | 18 | 192 | 4.8 | 14.5 | 0.00 | 0.00 | 0.00 | 31 | 1010.0 |
| 20260506151042 | 18 | 0 | 3.2 | 14.5 | 0.00 | 0.00 | 0.00 | 31 | 1010.1 |
| 20260506150543 | 18 | 168 | 6.4 | 12.9 | 0.00 | 0.00 | 0.00 | 30 | 1010.2 |
| 20260506150053 | 18 | 204 | 0.0 | 3.2 | 0.00 | 0.00 | 0.00 | 28 | 1010.2 |
| 20260506145545 | 18 | 259 | 0.0 | 12.9 | 0.00 | 0.00 | 0.00 | 31 | 1010.3 |
| 20260506145045 | 17 | 273 | 3.2 | 12.9 | 0.00 | 0.00 | 0.00 | 31 | 1010.4 |
| 20260506144602 | 17 | 135 | 3.2 | 11.3 | 0.00 | 0.00 | 0.00 | 33 | 1010.4 |
| 20260506144045 | 17 | 180 | 4.8 | 11.3 | 0.00 | 0.00 | 0.00 | 32 | 1010.5 |
| 20260506143545 | 17 | 147 | 1.6 | 9.7 | 0.00 | 0.00 | 0.00 | 33 | 1010.6 |
| 20260506143051 | 17 | 230 | 1.6 | 9.7 | 0.00 | 0.00 | 0.00 | 33 | 1010.7 |
| 20260506142545 | 17 | 14 | 3.2 | 11.3 | 0.00 | 0.00 | 0.00 | 33 | 1010.7 |
| 20260506142042 | 17 | 12 | 6.4 | 11.3 | 0.00 | 0.00 | 0.00 | 32 | 1010.8 |
| 20260506141549 | 18 | 5 | 3.2 | 8.0 | 0.00 | 0.00 | 0.00 | 32 | 1010.8 |
| 20260506141045 | 18 | 224 | 1.6 | 8.0 | 0.00 | 0.00 | 0.00 | 32 | 1010.9 |
| 20260506140545 | 19 | 132 | 1.6 | 11.3 | 0.00 | 0.00 | 0.00 | 31 | 1010.9 |
| 20260506140053 | 18 | 307 | 3.2 | 11.3 | 0.00 | 0.00 | 0.00 | 34 | 1010.9 |
| 20260506135542 | 18 | 213 | 1.6 | 6.4 | 0.00 | 0.00 | 0.00 | 32 | 1011.0 |
| 20260506135043 | 18 | 240 | 1.6 | 6.4 | 0.00 | 0.00 | 0.00 | 33 | 1011.0 |
| 20260506134552 | 18 | 259 | 0.0 | 9.7 | 0.00 | 0.00 | 0.00 | 33 | 1011.0 |
| 20260506134043 | 17 | 262 | 1.6 | 9.7 | 0.00 | 0.00 | 0.00 | 35 | 1011.1 |
| 20260506133542 | 17 | 213 | 4.8 | 9.7 | 0.00 | 0.00 | 0.00 | 36 | 1011.2 |
| 20260506133052 | 16 | 225 | 3.2 | 8.0 | 0.00 | 0.00 | 0.00 | 36 | 1011.2 |
| 20260506132545 | 16 | 183 | 1.6 | 6.4 | 0.00 | 0.00 | 0.00 | 36 | 1011.3 |
| 20260506132044 | 16 | 351 | 0.0 | 6.4 | 0.00 | 0.00 | 0.00 | 37 | 1011.3 |
| 20260506131612 | 16 | 101 | 1.6 | 8.0 | 0.00 | 0.00 | 0.00 | 37 | 1011.3 |
| 20260506131045 | 16 | 0 | 1.6 | 8.0 | 0.00 | 0.00 | 0.00 | 37 | 1011.3 |
| 20260506130544 | 17 | 331 | 1.6 | 8.0 | 0.00 | 0.00 | 0.00 | 36 | 1011.3 |
| 20260506130055 | 16 | 0 | 0.0 | 6.4 | 0.00 | 0.00 | 0.00 | 39 | 1011.4 |
| 20260506125545 | 15 | 357 | 1.6 | 8.0 | 0.00 | 0.00 | 0.00 | 40 | 1011.5 |
| 20260506125044 | 15 | 323 | 3.2 | 8.0 | 0.00 | 0.00 | 0.00 | 40 | 1011.5 |
| 20260506124550 | 15 | 319 | 3.2 | 6.4 | 0.00 | 0.00 | 0.00 | 40 | 1011.6 |
| 20260506124044 | 16 | 330 | 3.2 | 6.4 | 0.00 | 0.00 | 0.00 | 40 | 1011.7 |
| 20260506123542 | 16 | 324 | 0.0 | 6.4 | 0.00 | 0.00 | 0.00 | 40 | 1011.6 |
| 20260506123055 | 15 | 338 | 1.6 | 8.0 | 0.00 | 0.00 | 0.00 | 41 | 1011.7 |
| 20260506122542 | 15 | 336 | 3.2 | 12.9 | 0.00 | 0.00 | 0.00 | 41 | 1011.8 |
| 20260506122042 | 15 | 37 | 1.6 | 12.9 | 0.00 | 0.00 | 0.00 | 42 | 1011.8 |
| 20260506121557 | 15 | 341 | 4.8 | 12.9 | 0.00 | 0.00 | 0.00 | 41 | 1011.8 |
| 20260506121047 | 15 | 351 | 3.2 | 14.5 | 0.00 | 0.00 | 0.00 | 40 | 1011.8 |
| 20260506120542 | 16 | 94 | 8.0 | 14.5 | 0.00 | 0.00 | 0.00 | 39 | 1011.8 |
| 20260506120054 | 16 | 30 | 1.6 | 8.0 | 0.00 | 0.00 | 0.00 | 40 | 1011.9 |
| 20260506115547 | 15 | 74 | 1.6 | 6.4 | 0.00 | 0.00 | 0.00 | 41 | 1011.9 |
| 20260506115043 | 15 | 39 | 1.6 | 8.0 | 0.00 | 0.00 | 0.00 | 42 | 1012.0 |
| 20260506114553 | 15 | 2 | 0.0 | 8.0 | 0.00 | 0.00 | 0.00 | 41 | 1012.1 |
| 20260506114045 | 15 | 41 | 3.2 | 12.9 | 0.00 | 0.00 | 0.00 | 42 | 1012.1 |
| 20260506113543 | 15 | 331 | 3.2 | 12.9 | 0.00 | 0.00 | 0.00 | 41 | 1012.0 |
| 20260506113049 | 16 | 330 | 0.0 | 4.8 | 0.00 | 0.00 | 0.00 | 43 | 1012.1 |
| 20260506112545 | 15 | 0 | 1.6 | 4.8 | 0.00 | 0.00 | 0.00 | 42 | 1012.2 |
| 20260506112044 | 15 | 0 | 1.6 | 9.7 | 0.00 | 0.00 | 0.00 | 43 | 1012.3 |
| 20260506111552 | 15 | 288 | 0.0 | 11.3 | 0.00 | 0.00 | 0.00 | 43 | 1012.3 |
| 20260506111043 | 15 | 299 | 4.8 | 11.3 | 0.00 | 0.00 | 0.00 | 43 | 1012.3 |
| 20260506110543 | 15 | 322 | 1.6 | 14.5 | 0.00 | 0.00 | 0.00 | 42 | 1012.3 |
| 20260506110046 | 15 | 360 | 3.2 | 14.5 | 0.00 | 0.00 | 0.00 | 43 | 1012.3 |
| 20260506105544 | 15 | 24 | 0.0 | 12.9 | 0.00 | 0.00 | 0.00 | 44 | 1012.4 |